DW9451 Bourne MA US current weather conditions

sailwx.info

Last reported at 2020-Jan-27 12:01 UTC.
Time now 2020-Jan-27 12:51 UTC

Location: N 41°44' W 070°37'.
View on Google Maps.

See reports from other nearby stations

  
Tides and Currents Weather Stations Pressure Air Temp Water Temp Dewpoint Dewpoint Depression Visibility Wind Speed Wind Dir Waves Ship Positions
date/time (UTC)wind fromknots sea level pressurealtimeterstation pressurevisibilityair tempwater tempwave heightnotes
2020-Jan-27 12:01
2020-Jan-27 11:45
2020-Jan-27 11:30
2020-Jan-27 11:16
2020-Jan-27 11:00
2020-Jan-27 10:45
2020-Jan-27 10:31
2020-Jan-27 10:15
2020-Jan-27 10:00
2020-Jan-27 09:45
2020-Jan-27 09:32
2020-Jan-27 09:19
2020-Jan-27 09:02
2020-Jan-27 08:47
2020-Jan-27 08:31
2020-Jan-27 08:16
2020-Jan-27 08:00
2020-Jan-27 07:46 255
2020-Jan-27 07:32 254
2020-Jan-27 07:16 257
2020-Jan-27 07:01
2020-Jan-27 06:46 269
2020-Jan-27 06:31 255
2020-Jan-27 06:15 244
2020-Jan-27 06:00 279
2020-Jan-27 05:45 270
2020-Jan-27 05:30 277 0 gusting 6
2020-Jan-27 05:17 276
2020-Jan-27 05:01
2020-Jan-27 04:48 260
2020-Jan-27 04:32 296 0 gusting 6
2020-Jan-27 04:17 283 0 gusting 6
2020-Jan-27 04:04 216 0 gusting 7
2020-Jan-27 03:46 284 1 gusting 6
2020-Jan-27 03:31 254
2020-Jan-27 03:16 274
2020-Jan-27 03:01 300 1 gusting 9
2020-Jan-27 02:47 271
2020-Jan-27 02:31 252
2020-Jan-27 02:16 272
2020-Jan-27 02:01 276
2020-Jan-27 01:46 276
2020-Jan-27 01:30 294
2020-Jan-27 01:15 282
2020-Jan-27 01:02 235
2020-Jan-27 00:47 270
2020-Jan-27 00:32 316
2020-Jan-27 00:17 326
2020-Jan-27 00:02 269
2020-Jan-26 23:47 333
2020-Jan-26 23:32 317
2020-Jan-26 23:16 333 0 gusting 8
2020-Jan-26 23:01 319 0 gusting 6 70.0
2020-Jan-26 22:46 347 0 gusting 8
2020-Jan-26 22:30 315 0 gusting 7
2020-Jan-26 22:15 278
2020-Jan-26 22:02 281 0 gusting 7
2020-Jan-26 21:45 281 3 gusting 9
2020-Jan-26 21:30 238 6 gusting 13
2020-Jan-26 21:15 247 6 gusting 13
2020-Jan-26 21:00 253 5 gusting 13
2020-Jan-26 20:45 257 5 gusting 12
2020-Jan-26 20:32 360 5 gusting 12
2020-Jan-26 20:16 250 7 gusting 13
2020-Jan-26 20:01 259 6 gusting 13
2020-Jan-26 19:47 224 7 gusting 13
2020-Jan-26 19:31 271 6 gusting 14
2020-Jan-26 19:17 229 5 gusting 15
2020-Jan-26 19:01 238 6 gusting 14
2020-Jan-26 18:46 221 5 gusting 14
2020-Jan-26 18:30 263 6 gusting 12
2020-Jan-26 18:16 233 6 gusting 13
2020-Jan-26 18:01 279 2 gusting 11
2020-Jan-26 17:46 250 4 gusting 8
2020-Jan-26 17:31 232 1 gusting 6
2020-Jan-26 17:15 279 1 gusting 8
2020-Jan-26 17:00 293 0 gusting 6
2020-Jan-26 16:45 005
2020-Jan-26 16:30 326 2 gusting 7
2020-Jan-26 16:18 269
2020-Jan-26 16:02 324 0 gusting 6
2020-Jan-26 15:47 312 1 gusting 9
2020-Jan-26 15:31 296 3 gusting 8
2020-Jan-26 15:17 307
2020-Jan-26 15:02 275
2020-Jan-26 14:46 276 2 gusting 10
2020-Jan-26 14:31 348 1 gusting 6
2020-Jan-26 14:15 346 2 gusting 10
2020-Jan-26 14:00
2020-Jan-26 13:46
2020-Jan-26 13:31
2020-Jan-26 13:16
2020-Jan-26 13:00
2020-Jan-26 12:45
2020-Jan-26 12:30
2020-Jan-26 12:16
2020-Jan-26 12:01
2020-Jan-26 11:45
2020-Jan-26 11:30
2020-Jan-26 11:15
2020-Jan-26 11:01
2020-Jan-26 10:33
2020-Jan-26 10:16
2020-Jan-26 10:01
2020-Jan-26 09:32
2020-Jan-26 09:16
2020-Jan-26 09:01
2020-Jan-26 08:31
2020-Jan-26 08:16
2020-Jan-26 08:01
2020-Jan-26 07:30 227 2 gusting 6
2020-Jan-26 07:15 217 0 gusting 5
2020-Jan-26 07:00 235
2020-Jan-26 06:32 250
2020-Jan-26 06:18 252 0 gusting 6
2020-Jan-26 06:02 252 0 gusting 4
2020-Jan-26 05:31 227 3 gusting 8
2020-Jan-26 05:16 258 3 gusting 7
2020-Jan-26 05:01 215 3 gusting 13
2020-Jan-26 04:30 258 6 gusting 12
2020-Jan-26 04:15 204 5 gusting 12
2020-Jan-26 04:01 186 9 gusting 18
2020-Jan-26 03:31 183 8 gusting 19
2020-Jan-26 03:15 215 6 gusting 14
2020-Jan-26 03:00 167 6 gusting 15
2020-Jan-26 02:30 187 6 gusting 16
2020-Jan-26 02:16 202 6 gusting 15
2020-Jan-26 02:02 178 6 gusting 17
2020-Jan-26 01:31 174 6 gusting 17
2020-Jan-26 01:16 187 5 gusting 16
2020-Jan-26 01:01 156 6 gusting 15
2020-Jan-26 00:32 211 6 gusting 26
2020-Jan-26 00:16 143 5 gusting 14
2020-Jan-26 00:01 152 4 gusting 15
2020-Jan-25 23:30 223 3 gusting 13
2020-Jan-25 23:15 130 4 gusting 13
2020-Jan-25 23:00 119 2 gusting 13
2020-Jan-25 22:30 211 1 gusting 13 70.0
2020-Jan-25 22:18 122 3 gusting 13
2020-Jan-25 22:01 142 0 gusting 13
2020-Jan-25 21:31 111 4 gusting 11
2020-Jan-25 21:17 114 5 gusting 16
2020-Jan-25 21:01 210 3 gusting 13
2020-Jan-25 20:31 104
2020-Jan-25 20:16 067 0 gusting 6
2020-Jan-25 20:01 088 0 gusting 6
2020-Jan-25 19:31 079 0 gusting 6
2020-Jan-25 19:16 061 1 gusting 6
2020-Jan-25 19:00 080 1 gusting 9
2020-Jan-25 18:30 083 1 gusting 8
2020-Jan-25 18:15 077
2020-Jan-25 18:00 065 3 gusting 9
2020-Jan-25 17:32 053 3 gusting 12
2020-Jan-25 17:16 084 2 gusting 11
2020-Jan-25 17:02 035 0 gusting 7
2020-Jan-25 16:30 078 2 gusting 7
2020-Jan-25 16:17 115
2020-Jan-25 16:01 078 1 gusting 10
2020-Jan-25 15:30 128 3 gusting 11
2020-Jan-25 15:15 092 3 gusting 13
2020-Jan-25 15:00 130 1 gusting 6
2020-Jan-25 14:30 115 1 gusting 7
2020-Jan-25 14:15 116 0 gusting 9
2020-Jan-25 14:00 126 2 gusting 7
2020-Jan-25 13:30
2020-Jan-25 13:18
2020-Jan-25 13:01
2020-Jan-25 12:31
2020-Jan-25 12:18
2020-Jan-25 12:02